| time (UTC) | temp C | wind direction | speed KPH | gust KPH | rain 1hr cm | rain 24hr cm | rain mn cm | humidity % | barometer mb |
| 20260507114705 | 2 | 246 | 1.6 | 1.6 | 0.00 | 0.00 | 0.00 | 77 | 1017.8 |
| 20260507112705 | 2 | 238 | 4.8 | 4.8 | 0.00 | 0.00 | 0.00 | 76 | 1017.8 |
| 20260507110705 | 2 | 220 | 4.8 | 4.8 | 0.00 | 0.00 | 0.00 | 76 | 1017.8 |
| 20260507104705 | 2 | 220 | 6.4 | 6.4 | 0.00 | 0.00 | 0.00 | 75 | 1017.8 |
| 20260507102705 | 2 | 207 | 6.4 | 6.4 | 0.00 | 0.00 | 0.00 | 75 | 1017.9 |
| 20260507100705 | 2 | 202 | 4.8 | 4.8 | 0.00 | 0.00 | 0.00 | 75 | 1017.9 |
| 20260507094705 | 2 | 210 | 4.8 | 4.8 | 0.00 | 0.00 | 0.00 | 74 | 1018.0 |
| 20260507092705 | 2 | 208 | 6.4 | 6.4 | 0.00 | 0.00 | 0.00 | 73 | 1017.9 |
| 20260507090705 | 2 | 205 | 6.4 | 6.4 | 0.00 | 0.00 | 0.00 | 72 | 1017.9 |
| 20260507084705 | 2 | 197 | 4.8 | 4.8 | 0.00 | 0.00 | 0.00 | 72 | 1017.8 |
| 20260507082705 | 3 | 194 | 6.4 | 6.4 | 0.00 | 0.00 | 0.00 | 72 | 1017.7 |
| 20260507080705 | 3 | 198 | 4.8 | 4.8 | 0.00 | 0.00 | 0.00 | 70 | 1017.6 |
| 20260507074705 | 3 | 202 | 3.2 | 3.2 | 0.00 | 0.00 | 0.00 | 68 | 1017.7 |
| 20260507072705 | 3 | 180 | 3.2 | 3.2 | 0.00 | 0.00 | 0.00 | 67 | 1017.9 |
| 20260507070705 | 3 | 206 | 4.8 | 4.8 | 0.00 | 0.00 | 0.00 | 67 | 1018.0 |
| 20260507064705 | 3 | 220 | 4.8 | 4.8 | 0.00 | 0.00 | 0.00 | 66 | 1018.1 |
| 20260507062705 | 3 | 234 | 4.8 | 4.8 | 0.00 | 0.00 | 0.00 | 66 | 1018.3 |
| 20260507060705 | 4 | 223 | 3.2 | 3.2 | 0.00 | 0.00 | 0.00 | 66 | 1018.4 |
| 20260507054705 | 4 | 233 | 4.8 | 4.8 | 0.00 | 0.00 | 0.00 | 65 | 1018.5 |
| 20260507052705 | 4 | 229 | 4.8 | 4.8 | 0.00 | 0.00 | 0.00 | 65 | 1018.6 |
| 20260507050705 | 4 | 226 | 4.8 | 4.8 | 0.00 | 0.00 | 0.00 | 65 | 1018.7 |
| 20260507044705 | 4 | 230 | 3.2 | 3.2 | 0.00 | 0.00 | 0.00 | 64 | 1018.8 |
| 20260507042705 | 4 | 223 | 4.8 | 4.8 | 0.00 | 0.00 | 0.00 | 63 | 1018.9 |
| 20260507040705 | 5 | 238 | 4.8 | 4.8 | 0.00 | 0.00 | 0.00 | 62 | 1019.0 |
| 20260507034705 | 5 | 229 | 3.2 | 3.2 | 0.00 | 0.00 | 0.00 | 62 | 1019.0 |
| 20260507032705 | 5 | 239 | 4.8 | 4.8 | 0.00 | 0.00 | 0.00 | 61 | 1019.1 |
| 20260507030705 | 5 | 227 | 4.8 | 4.8 | 0.00 | 0.00 | 0.00 | 60 | 1019.2 |
| 20260507024705 | 5 | 226 | 4.8 | 4.8 | 0.00 | 0.00 | 0.00 | 59 | 1019.2 |
| 20260507022705 | 5 | 206 | 4.8 | 4.8 | 0.00 | 0.00 | 0.00 | 59 | 1019.1 |
| 20260507020705 | 5 | 217 | 4.8 | 4.8 | 0.00 | 0.00 | 0.00 | 58 | 1019.0 |
| 20260507014705 | 5 | 227 | 4.8 | 4.8 | 0.00 | 0.00 | 0.00 | 57 | 1019.0 |
| 20260507012705 | 5 | 233 | 4.8 | 4.8 | 0.00 | 0.00 | 0.00 | 57 | 1018.9 |
| 20260507010705 | 6 | 239 | 4.8 | 4.8 | 0.00 | 0.00 | 0.00 | 55 | 1019.0 |
| 20260507004705 | 6 | 235 | 8.0 | 8.0 | 0.00 | 0.00 | 0.00 | 55 | 1019.2 |
| 20260507002705 | 6 | 245 | 8.0 | 8.0 | 0.00 | 0.00 | 0.00 | 54 | 1019.2 |
| 20260507000705 | 6 | 248 | 9.7 | 9.7 | 0.00 | 0.00 | 0.00 | 53 | 1019.2 |
| 20260506234705 | 6 | 248 | 8.0 | 8.0 | 0.00 | 0.00 | 0.00 | 53 | 1019.3 |
| 20260506232707 | 6 | 263 | 8.0 | 8.0 | 0.00 | 0.00 | 0.00 | 53 | 1019.4 |
| 20260506230706 | 6 | 246 | 8.0 | 8.0 | 0.00 | 0.00 | 0.00 | 53 | 1019.4 |
| 20260506224706 | 6 | 232 | 11.3 | 11.3 | 0.00 | 0.00 | 0.00 | 53 | 1019.6 |
| 20260506222706 | 6 | 244 | 8.0 | 8.0 | 0.00 | 0.00 | 0.00 | 54 | 1019.7 |
| 20260506220706 | 6 | 296 | 6.4 | 6.4 | 0.00 | 0.00 | 0.00 | 54 | 1019.8 |
| 20260506214706 | 6 | 249 | 11.3 | 11.3 | 0.00 | 0.00 | 0.00 | 54 | 1020.0 |
| 20260506212706 | 6 | 250 | 11.3 | 11.3 | 0.00 | 0.00 | 0.00 | 54 | 1020.1 |
| 20260506210706 | 6 | 230 | 9.7 | 9.7 | 0.00 | 0.00 | 0.00 | 54 | 1020.1 |
| 20260506204706 | 6 | 243 | 9.7 | 9.7 | 0.00 | 0.00 | 0.00 | 54 | 1020.2 |
| 20260506202706 | 6 | 226 | 11.3 | 11.3 | 0.00 | 0.00 | 0.00 | 53 | 1020.2 |
| 20260506200706 | 5 | 224 | 8.0 | 8.0 | 0.00 | 0.00 | 0.00 | 54 | 1020.3 |
| 20260506194706 | 5 | 262 | 6.4 | 6.4 | 0.00 | 0.00 | 0.00 | 54 | 1020.3 |
| 20260506192706 | 5 | 250 | 12.9 | 12.9 | 0.00 | 0.00 | 0.00 | 54 | 1020.5 |
| 20260506190706 | 5 | 321 | 6.4 | 6.4 | 0.00 | 0.00 | 0.00 | 55 | 1020.5 |
| 20260506184706 | 5 | 248 | 9.7 | 9.7 | 0.00 | 0.00 | 0.00 | 56 | 1020.6 |
| 20260506182706 | 5 | 218 | 8.0 | 8.0 | 0.00 | 0.00 | 0.00 | 56 | 1020.6 |
| 20260506180706 | 5 | 255 | 11.3 | 11.3 | 0.00 | 0.00 | 0.00 | 56 | 1020.7 |
| 20260506174706 | 4 | 252 | 6.4 | 6.4 | 0.00 | 0.00 | 0.00 | 57 | 1020.8 |
| 20260506172706 | 5 | 332 | 4.8 | 4.8 | 0.00 | 0.00 | 0.00 | 57 | 1020.8 |
| 20260506170705 | 4 | 239 | 9.7 | 9.7 | 0.00 | 0.00 | 0.00 | 58 | 1021.1 |
| 20260506164705 | 4 | 302 | 8.0 | 8.0 | 0.00 | 0.00 | 0.00 | 60 | 1021.1 |
| 20260506162705 | 3 | 308 | 6.4 | 6.4 | 0.00 | 0.00 | 0.00 | 61 | 1021.2 |
| 20260506160705 | 3 | 244 | 12.9 | 12.9 | 0.00 | 0.00 | 0.00 | 62 | 1021.2 |
| 20260506154705 | 3 | 264 | 11.3 | 11.3 | 0.00 | 0.00 | 0.00 | 63 | 1021.1 |
| 20260506152705 | 3 | 296 | 8.0 | 8.0 | 0.00 | 0.00 | 0.00 | 63 | 1021.1 |
| 20260506150706 | 3 | 275 | 6.4 | 6.4 | 0.00 | 0.00 | 0.00 | 65 | 1021.2 |
| 20260506144705 | 3 | 294 | 6.4 | 6.4 | 0.00 | 0.00 | 0.00 | 66 | 1021.0 |
| 20260506142705 | 3 | 325 | 4.8 | 4.8 | 0.00 | 0.00 | 0.00 | 66 | 1020.9 |
| 20260506140705 | 3 | 268 | 6.4 | 6.4 | 0.00 | 0.00 | 0.00 | 66 | 1020.8 |
| 20260506134705 | 3 | 252 | 6.4 | 6.4 | 0.00 | 0.00 | 0.00 | 68 | 1020.6 |
| 20260506132705 | 3 | 277 | 3.2 | 3.2 | 0.00 | 0.00 | 0.00 | 68 | 1020.4 |
| 20260506130705 | 2 | 279 | 8.0 | 8.0 | 0.00 | 0.00 | 0.00 | 68 | 1020.3 |
| 20260506124705 | 2 | 250 | 6.4 | 6.4 | 0.00 | 0.00 | 0.00 | 68 | 1020.4 |
| 20260506122705 | 2 | 258 | 4.8 | 4.8 | 0.00 | 0.00 | 0.00 | 69 | 1020.0 |
| 20260506120705 | 2 | 264 | 4.8 | 4.8 | 0.00 | 0.00 | 0.00 | 70 | 1019.9 |